sat.trackr.live / text

‹ back to catalog

STARLINK-30755

NORAD 58186 · 2023-167M

PAYLOAD ACTIVE UNKNOWN

§ Identity

Operator
Country
US
Launch date
2023-10-30
Launch site
AFETR
Launch vehicle
Mass (kg)
RCS (m²)

Purposes: comms

External: N2YO · Heavens-Above · Gunter

§ Orbital elements

Epoch: 2026-05-25T03:54:46.294848Z

Period
94.27 min
Inclination
43.0014°
Eccentricity
0.0000923
Mean motion
15.27565957 rev/d
Perigee alt
482.5 km
Apogee alt
483.7 km
Semi-major
6,861.2 km
B*
4.1764e-5
RAAN
71.2622°
Arg perigee
259.9800°
Mean anomaly
100.0948°
Rev number
14,268

§ Raw data

STARLINK-307551 58186U 23167M   26145.16303582  .00000887  00000+0  41764-4 0  99912 58186  43.0014  71.2622 0000923 259.9800 100.0948 15.27565957142684

JSON: /api/v1/satellites/58186 · /tle

For live sub-satellite position, see the globe view (requires WebGL).

§ Visibility from observer

Set your observer location to see the next 7 days of passes ≥ 10°. The values pass through the URL so the page stays shareable.

No JS? Fill the form by hand. The geolocation button needs JavaScript.